Zurück zum Katalog

DIZHI-1

AktivWissenschaftSSO
NORAD 64048·PAYLOAD·🇨🇳 China
Dieser Satellitenname wurde noch nicht durch offizielle Quellen bestätigt.

Gestartet May 17, 2025 von Jiuquan Satellite Launch Center

Loading…

Nächste Überflüge (nächste 24 Stunden)

TLE

AktuellSource: Space-Track

Epoche: Sep 14, 2026, 14:56 UTC

1 64048U 25103A   26257.62278418  .00001540  00000-0  76464-4 0  9994
2 64048  97.4111 328.4992 0001537  89.4641 270.6770 15.19171754 73653

Verfolge DIZHI-1 in Echtzeit mit AllMySat

Download on the App Store